Location: ????????
(56.0167°N, 38.0333°E)
Time: 02:15:53
(UTC+00:00)

USA 59 Rocket - Pass Details

Date: 19 May 2025
Orbit: 373 x 1696 km, 63.3° (Epoch: 14 June)

Event Time Altitude Azimuth Distance (km) Brightness Sun altitude
Exits shadow 22:09:30 - 256° (WSW) 1,767 2.2 -13.4°
Reaches altitude 10° 22:10:19 10° 259° (W) 1,426 1.7 -13.4°
Maximum altitude 22:13:12 41° 333° (NNW) 564 0.3 -13.3°
Drops below altitude 10° 22:16:04 10° 46° (NE) 1,417 2.8 -13.2°
Sets 22:18:14 0° 54° (NE) 2,337 3.9 -13.2°
